Regional Weather Roundup
Issued by NWS

Home | Current Version | Previous Version | Graphics & Text | Print | Product List | Glossary On
Versions: 1 2 3 4 5 6 7 8 9 10 11 12 13 14 15 16 17 18 19 20 21 22 23 24 25 26 27 28 29 30 31 32 33 34 35 36 37 38 39 40 41 42 43 44 45 46 47 48 49 50
160
ASUS43 KFSD 051702
RWRSD

WEATHER ROUNDUP FOR SOUTH DAKOTA
NATIONAL WEATHER SERVICE SIOUX FALLS SD
1200 PM CDT THU MAY 05 2016

NOTE: "FAIR" INDICATES FEW OR NO CLOUDS BELOW 12,000 FEET WITH NO
SIGNIFICANT WEATHER AND/OR OBSTRUCTIONS TO VISIBILITY.


SDZ001>005-009-010-012>017-051800-
NORTHWEST AND NORTH CENTRAL SOUTH DAKOTA

CITY           SKY/WX    TMP DP  RH WIND       PRES   REMARKS
BUFFALO          N/A     79  47  32 S6        29.86F
FAITH            N/A     71  48  43 S10       29.92S
MOBRIDGE       SUNNY     78  48  34 S15       29.89F
$$

SDZ012>016-024>037-041>051-057-063-072>074-051800-
SOUTHWEST AND SOUTH CENTRAL SOUTH DAKOTA

CITY           SKY/WX    TMP DP  RH WIND       PRES   REMARKS
RAPID CTY ARPT SUNNY     75  51  43 SE7       29.94F
PIERRE         SUNNY     80  46  30 S16       29.93F
CUSTER         SUNNY     75  29  18 CALM      30.06F
ELLSWORTH AFB  SUNNY     76  51  41 SE6       29.94S
PHILIP         SUNNY     77  52  41 S12       29.92F
PINE RIDGE     SUNNY     75  47  36 S10G18    29.98F
WINNER         LGT RAIN  80  46  30 S15       29.99F
$$

SDZ004>011-016>023-039-040-051800-
NORTHEAST SOUTH DAKOTA

CITY           SKY/WX    TMP DP  RH WIND       PRES   REMARKS
ABERDEEN       SUNNY     82  41  23 S14G20    29.94F
WATERTOWN      SUNNY     75  41  29 S12       29.99F
BROOKINGS      SUNNY     73  43  33 S9        30.02S
SISSETON         N/A     79  42  26 W20G31    29.91F
$$

SDZ017-020-022-023-036>040-048>070-051800-
SOUTHEAST SOUTH DAKOTA

CITY           SKY/WX    TMP DP  RH WIND       PRES   REMARKS
SIOUX FALLS    MOSUNNY   69  46  43 S8        30.04F
HURON          SUNNY     77  44  30 SW13      29.98F
MITCHELL       SUNNY     76  44  32 S12       30.01F
YANKTON        SUNNY     72  45  37 SW8       30.04S
$$

ABBREVIATIONS USED IN REMARKS
   TC - TEMPERATURE IN CELSIUS
  WCI - WIND CHILL INDEX
   HX - HEAT INDEX
  VSB - VISIBILITY





USA.gov is the U.S. government's official web portal to all federal, state and local government web resources and services.